DELTA 1 DEB, 19000

Orbit data source: Space-Track

DELTA 1 DEB, 19000 is space debris in SSO originally from a launch on Thu, 29 Jul 1976 UTC launched from the Air Force Western Test Range (AFWTR). Debris objects in space refer to the collection of defunct objects orbiting the Earth. Examples of debris include non-operational satellites, rocket bodies, and fragments generated from explosions, collisions, or faulty payload assembly.

Loading next visibility...
Identifier
19000, 1976-077FH
Orbit
SSO
Country
Flag of USUS
Related business
Manufacturer
Unknown
Mission
Spacecraft
Bus & Motor
Unknown
Mass
Unknown
Launch date (UTC)
1976-07-29 (49 years ago)
Launch vehicle
Unknown
Launch site
Air Force Western Test Range (AFWTR)
Object type
Payload
Rocket body
Debris
Shape & HBR
Unknown shape, 0.1 m
Radar Cross Section
Small (<0.1 m²)

Expand to show TLE details & history
Last TLE update: 20 hours ago

TLE from 20 hours ago
0 DELTA 1 DEB
1 19000U 76077FH  25288.90672266 -.00000022  00000-0  20888-3 0  9994
2 19000 102.5800 271.4666 0078687  30.4756 359.1589 12.26756426696979
Epoch: 2025-10-15T21:45Z
TLE epoch observation values (Epoch: 2025-10-15T21:45:40.837Z)
Latitude
28.88744°
Longitude
-86.66543°
Altitude
1,503.989 km
Speed
7.143 km/s
True Right ascension
17h 37m 42s
True Declination
28° 45' 22"
Sunlit
Object was in daylight at epoch
Visualization orbit readout
Latitude
Unknown
Longitude
Unknown
Altitude
Unknown
Speed
Unknown
Apparent Right ascension
Unknown
Apparent Declination
Unknown
Sunlit
N/A
Visualization observer readout
Local Sidereal Time
12:35:43
Azimuth
Unknown
Elevation
Unknown
Doppler factor
Unknown
Orbital elements
Apogee altitude
1,623.345 km
Perigee altitude
1,498.406 km
Semi-major axis
7,939.012 km
Eccentricity
0.00787
Inclination
102.58°
RAAN
271.4666°
Arg. of periapsis
30.4756°
True anomaly
359.14553°
Mean anomaly
359.1589°
Eccentric anomaly
359.15223°
Mean motion
3.06827 °/min
Orbital period
117.33 mins
BSTAR
0.00020888
Loading maneuver chart data...
Computing Atmospheric mass density...
Loading historical data...
Loading historical data...
Loading historical data...
Loading historical data...
Loading historical data...
Loading historical data...
Loading historical data...

Documentation

Showing up to 5 results
|